Location: Duffs
(47.4500°N, 53.1167°W)
Time: 02:45:04
(UTC+00:00)

ISS - Pass Details

Date: 26 May 2022
Orbit: 414 x 420 km, 51.6° (Epoch: 04 July)

Event Time Altitude Azimuth Distance (km) Brightness Sun altitude
Rises 00:14:35 0° 292° (WNW) 2,371 1.5 -8.7°
Reaches altitude 10° 00:16:44 10° 297° (WNW) 1,504 0.4 -8.9°
Maximum altitude 00:20:02 53° 15° (NNE) 524 -3.1 -9.3°
Drops below altitude 10° 00:23:20 10° 94° (E) 1,495 -1.4 -9.7°
Enters shadow 00:23:41 - 95° (E) 1,632 -1.2 -9.8°
